Tracking 19795 objects as of 19-Jul-2019
HD Live streaming from Space Station
objects crossing your sky now

THORAD AGENA D DEB

Track THORAD AGENA D DEB now!
10-day predictions


NORAD ID: 6139
Int'l Code: 1970-025MV
Perigee: 868.5 km
Apogee: 979.5 km
Inclination: 99.1 °
Period: 103.3 minutes
Semi major axis: 7295 km
RCS: 0.0148 m2 (small)
Launch date: April 8, 1970
Source: United States (US)
Launch site: AIR FORCE WESTERN TEST RANGE (AFWTR)

Note: This is SATELLITE DEBRIS
aabbcc
Your satellite tracking list
Your tracking list is empty




NASA's NSSDC Master Catalog

Two Line Element Set (TLE):
1  6139U 70025MV  19197.12373478  .00000454  00000-0  37092-3 0  9992
2  6139  99.0808  90.6092 0076062  77.3427 283.6224 13.93363552476163
Source of the keplerian elements: AFSPC